Terminal Aerodrome Forecast
Issued by NWS Boston, MA

Home | Current Version | Previous Version | Text Only | Print | Product List | Glossary On
Versions: 1 2 3 4 5 6 7 8 9 10 11 12 13 14 15 16 17 18 19 20 21 22 23 24 25 26 27 28 29 30 31 32 33 34 35 36 37 38 39 40 41 42 43 44 45 46
000
FTUS41 KBOX 211142 AAA
TAFPVD
TAF AMD
KPVD 211142Z 2112/2212 18007KT 4SM BR VCTS OVC005CB
      TEMPO 2112/2114 2SM -SHRA BR OVC002
     FM211400 21008KT P6SM OVC008
     FM211600 22009KT P6SM BKN015
     FM211800 26010KT P6SM -SHRA BKN020
     FM212300 27008KT P6SM SCT050
     FM221100 22006KT P6SM FEW120=

USA.gov is the U.S. government's official web portal to all federal, state and local government web resources and services.